Date String (YYYY-MM-DD hh:mm:ss) UTC,Instrument flags,Ambient pressure (hPa),Sample flow (lpm),Bypass flow (lpm),Sample temperature (°C),Ambient temperature (°C),ASC tube jacket temperature (°C),LED temperature (°C),Box temperature (°C),Sample RH (%),Span deviation,Mass concentration (μg/m³),Mass concentration (μg/m³),Mass concentration (μg/m³)
DateTimeUTC,F1_M11,P_M11,Q1_M11,Q2_M11,T1_M11,T2_M11,T3_M11,T4_M11,T5_M11,U1_M11,ZSPAN_M11,X0_M11,X2_M11,X1_M11
2023-02-10 02:00:00,,0835.5,4.99,0.00,22.1,21.6,00.0,30.9,23.9,08.9,0000.0,0009.08,0002.63,0001.69
2023-02-10 02:01:00,,0835.5,5.01,0.00,22.1,21.1,00.0,30.9,23.8,09.0,0000.0,0008.98,0002.55,0001.68
2023-02-10 02:02:00,,0835.5,4.96,0.00,22.1,20.8,00.0,30.9,23.7,09.0,0000.0,0008.81,0002.49,0001.66
2023-02-10 02:03:00,,0835.5,5.00,0.00,22.0,20.5,00.0,30.9,23.6,09.0,0000.0,0009.26,0002.43,0001.64
2023-02-10 02:04:00,,0835.4,5.03,0.00,22.0,20.2,00.0,30.9,23.6,09.0,0000.0,0009.86,0002.42,0001.61
2023-02-10 02:05:00,,0835.4,4.97,0.00,21.9,20.0,00.0,30.9,23.5,09.1,0000.0,0009.82,0002.39,0001.57
2023-02-10 02:06:00,,0835.4,5.04,0.00,21.9,19.8,00.0,30.9,23.4,09.1,0000.0,0010.31,0002.38,0001.55
2023-02-10 02:07:00,,0835.4,4.96,0.00,21.8,19.7,00.0,30.9,23.4,09.2,0000.0,0010.77,0002.36,0001.53
2023-02-10 02:08:00,,0835.4,5.03,0.00,21.8,19.6,00.0,30.8,23.2,09.2,0000.0,0010.47,0002.30,0001.51
2023-02-10 02:09:00,,0835.4,5.01,0.00,21.7,19.5,00.0,30.8,23.2,09.2,0000.0,0009.68,0002.22,0001.49
2023-02-10 02:10:00,,0835.4,5.08,0.00,21.7,19.7,00.0,30.8,23.2,09.2,0000.0,0009.48,0002.22,0001.49
2023-02-10 02:11:00,,0835.4,4.99,0.00,21.8,20.9,00.0,30.7,23.5,09.2,0000.0,0009.84,0002.24,0001.48
2023-02-10 02:12:00,,0835.4,4.99,0.00,21.9,22.0,00.0,30.7,23.8,09.2,0000.0,0010.77,0002.32,0001.49
2023-02-10 02:13:00,,0835.4,4.97,0.00,22.0,22.2,00.0,30.7,23.9,09.1,0000.0,0010.50,0002.35,0001.48
2023-02-10 02:14:00,,0835.4,5.03,0.00,22.0,21.6,00.0,30.8,23.8,09.1,0000.0,0010.17,0002.41,0001.47
2023-02-10 02:15:00,,0835.4,4.98,0.00,22.0,21.0,00.0,30.8,23.7,09.1,0000.0,0009.99,0002.47,0001.48
2023-02-10 02:16:00,,0835.4,5.00,0.00,21.9,20.6,00.0,30.8,23.5,09.1,0000.0,0010.21,0002.50,0001.48
2023-02-10 02:17:00,,0835.4,4.98,0.00,21.9,20.3,00.0,30.8,23.4,09.1,0000.0,0009.46,0002.49,0001.47
2023-02-10 02:18:00,,0835.4,4.98,0.00,21.8,20.0,00.0,30.8,23.3,09.2,0000.0,0009.29,0002.48,0001.46
2023-02-10 02:19:00,,0835.4,5.00,0.00,21.8,19.8,00.0,30.8,23.3,09.2,0000.0,0009.33,0002.49,0001.45
2023-02-10 02:20:00,,0835.4,5.03,0.00,21.7,19.6,00.0,30.8,23.2,09.2,0000.0,0009.24,0002.52,0001.45
2023-02-10 02:21:00,,0835.4,4.97,0.00,21.7,19.5,00.0,30.7,23.2,09.2,0000.0,0009.26,0002.54,0001.44
2023-02-10 02:22:00,,0835.3,5.02,0.00,21.7,19.4,00.0,30.7,23.1,09.2,0000.0,0009.12,0002.50,0001.43
2023-02-10 02:23:00,,0835.3,5.01,0.00,21.6,19.3,00.0,30.7,23.1,09.2,0000.0,0008.01,0002.44,0001.40
2023-02-10 02:24:00,,0835.4,5.02,0.00,21.6,20.4,00.0,30.6,23.3,09.2,0000.0,0008.28,0002.45,0001.41
2023-02-10 02:25:00,,0835.4,5.03,0.00,21.7,21.7,00.0,30.6,23.6,09.2,0000.0,0008.24,0002.41,0001.41
2023-02-10 02:26:00,,0835.3,5.02,0.00,21.9,22.4,00.0,30.6,23.8,09.1,0000.0,0007.88,0002.30,0001.40
2023-02-10 02:27:00,,0835.4,5.00,0.00,21.9,21.8,00.0,30.7,23.8,09.1,0000.0,0007.16,0002.30,0001.40
2023-02-10 02:28:00,,0835.4,5.01,0.00,21.9,21.3,00.0,30.7,23.6,09.1,0000.0,0007.32,0002.36,0001.40
2023-02-10 02:29:00,,0835.4,4.98,0.00,21.9,20.8,00.0,30.7,23.5,09.1,0000.0,0006.34,0002.37,0001.42
2023-02-10 02:30:00,,0835.4,4.98,0.00,21.8,20.4,00.0,30.7,23.4,09.1,0000.0,0006.76,0002.38,0001.45
2023-02-10 02:31:00,,0835.5,4.99,0.00,21.8,20.1,00.0,30.7,23.4,09.2,0000.0,0008.64,0002.42,0001.46
2023-02-10 02:32:00,,0835.5,5.02,0.00,21.7,19.9,00.0,30.7,23.3,09.2,0000.0,0009.26,0002.47,0001.48
2023-02-10 02:33:00,,0835.5,5.02,0.00,21.7,19.7,00.0,30.7,23.2,09.2,0000.0,0009.25,0002.50,0001.51
2023-02-10 02:34:00,,0835.5,4.98,0.00,21.6,19.6,00.0,30.7,23.1,09.2,0000.0,0009.54,0002.52,0001.54
2023-02-10 02:35:00,,0835.5,4.96,0.00,21.6,19.4,00.0,30.6,23.1,09.2,0000.0,0010.57,0002.49,0001.55
2023-02-10 02:36:00,,0835.5,4.97,0.00,21.6,19.3,00.0,30.6,23.0,09.3,0000.0,0010.35,0002.53,0001.56
2023-02-10 02:37:00,,0835.5,4.96,0.00,21.5,19.9,00.0,30.6,23.1,09.3,0000.0,0010.42,0002.61,0001.57
2023-02-10 02:38:00,,0835.5,5.03,0.00,21.7,21.3,00.0,30.5,23.5,09.3,0000.0,0010.94,0002.66,0001.58
2023-02-10 02:39:00,,0835.5,4.99,0.00,21.8,22.3,00.0,30.5,23.7,09.2,0000.0,0011.16,0002.58,0001.58
2023-02-10 02:40:00,,0835.5,5.00,0.00,21.9,22.0,00.0,30.6,23.8,09.2,0000.0,0011.69,0002.58,0001.59
2023-02-10 02:41:00,,0835.5,4.97,0.00,21.8,21.3,00.0,30.6,23.6,09.2,0000.0,0012.31,0002.59,0001.60
2023-02-10 02:42:00,,0835.5,5.07,0.00,21.8,20.8,00.0,30.6,23.5,09.2,0000.0,0011.58,0002.55,0001.60
2023-02-10 02:43:00,,0835.5,4.95,0.00,21.8,20.3,00.0,30.6,23.3,09.2,0000.0,0010.90,0002.51,0001.61
2023-02-10 02:44:00,,0835.5,5.04,0.00,21.7,20.0,00.0,30.6,23.3,09.2,0000.0,0011.04,0002.51,0001.60
2023-02-10 02:45:00,,0835.5,5.02,0.00,21.7,19.8,00.0,30.6,23.1,09.2,0000.0,0010.93,0002.50,0001.60
2023-02-10 02:46:00,,0835.5,5.00,0.00,21.6,19.5,00.0,30.6,23.1,09.2,0000.0,0009.54,0002.50,0001.59
2023-02-10 02:47:00,,0835.5,5.04,0.00,21.5,19.4,00.0,30.6,23.0,09.3,0000.0,0009.50,0002.50,0001.59
2023-02-10 02:48:00,,0835.5,4.99,0.00,21.5,19.3,00.0,30.6,23.0,09.3,0000.0,0009.50,0002.51,0001.59
2023-02-10 02:49:00,,0835.5,5.05,0.00,21.5,19.2,00.0,30.5,22.9,09.3,0000.0,0009.18,0002.52,0001.59
2023-02-10 02:50:00,,0835.5,5.02,0.00,21.5,20.1,00.0,30.5,23.1,09.3,0000.0,0009.05,0002.60,0001.60
2023-02-10 02:51:00,,0835.5,4.98,0.00,21.6,21.5,00.0,30.5,23.4,09.2,0000.0,0008.53,0002.61,0001.59
2023-02-10 02:52:00,,0835.5,5.00,0.00,21.7,22.2,00.0,30.5,23.7,09.1,0000.0,0007.69,0002.58,0001.57
2023-02-10 02:53:00,,0835.5,5.01,0.00,21.8,21.7,00.0,30.5,23.6,09.1,0000.0,0007.15,0002.55,0001.56
2023-02-10 02:54:00,,0835.5,5.00,0.00,21.7,21.0,00.0,30.6,23.4,09.1,0000.0,0006.47,0002.55,0001.54
2023-02-10 02:55:00,,0835.5,5.00,0.00,21.7,20.5,00.0,30.6,23.3,09.1,0000.0,0006.55,0002.61,0001.55
2023-02-10 02:56:00,,0835.6,5.00,0.00,21.6,20.1,00.0,30.6,23.2,09.1,0000.0,0006.48,0002.60,0001.55
2023-02-10 02:57:00,,0835.5,4.98,0.00,21.6,19.8,00.0,30.6,23.1,09.2,0000.0,0006.18,0002.57,0001.54
2023-02-10 02:58:00,,0835.5,5.00,0.00,21.5,19.5,00.0,30.5,23.0,09.2,0000.0,0005.82,0002.53,0001.54
2023-02-10 02:59:00,,0835.5,4.99,0.00,21.5,19.3,00.0,30.5,22.9,09.2,0000.0,0005.72,0002.44,0001.53
